Regional Weather Roundup
Issued by NWS Goodland, KS

Home | Current Version | Previous Version | Text Only | Print | Product List | Glossary Off
Versions: 1 2 3 4 5 6 7 8 9 10 11 12 13 14 15 16 17 18 19 20 21 22 23 24 25 26 27 28 29 30 31 32 33 34 35 36 37 38 39 40 41 42 43 44 45 46 47 48 49 50

000
ASUS43 KGLD 141008
RWRGLD

GOODLAND FORECAST AREA HOURLY WEATHER ROUNDUP
NATIONAL WEATHER SERVICE GOODLAND KS
400 AM MDT MON JUL 14 2014

...OFFICIAL OBSERVATIONS...

CITY           SKY/WX    TMP DP  RH WIND       PRES   REMARKS
GOODLAND KS    CLEAR     63  60  90 W12       30.14F
HILL CITY KS   CLEAR     67  62  84 W3        30.06S
IMPERIAL NEB   CLEAR     62  59  90 N10       30.13R
MCCOOK NEB     CLEAR     61  59  93 NW7       30.09R
AKRON CO       PTCLDY    60  58  92 W10       30.22S
BURLINGTON CO  CLEAR     63  59  87 W12       30.18S
LIMON CO       CLEAR     57  56  96 N5        30.29R
$$

...UNOFFICIAL OBSERVATIONS...

CITY           SKY/WX    TMP DP  RH WIND       PRES   REMARKS
COLBY KS       CLEAR     63  63 100 SW6       30.11F
GOVE KS          N/A     64  32  30 CALM        N/A
NORTON KS      CLEAR     59  54  82 CALM      30.07R
OBERLIN KS     FAIR      59  57  94 SW3       30.08R
SHARON SPRINGS   N/A     61  59  92 CALM        N/A
WAKEENEY KS      N/A     69  59  70 MISG        N/A
KIT CARSON CO    N/A     63  60  88 CALM        N/A
YUMA CO          N/A     61  58  90 W12         N/A
$$


USA.gov is the U.S. government's official web portal to all federal, state and local government web resources and services.